Location: Seven Kings
(51.5667°N, 0.1000°E)
Time: 03:31:10
(UTC+00:00)

Cosmos 2227 - Pass Details

Date: 29 October 2020
Orbit: 836 x 860 km, 71.0° (Epoch: 27 November)

Event Time Altitude Azimuth Distance (km) Brightness Sun altitude
Rises 19:30:09 0° 328° (NNW) 3,399 8.0 -27.3°
Reaches altitude 10° 19:32:36 10° 327° (NNW) 2,460 7.2 -27.6°
Maximum altitude 19:38:13 75° 243° (WSW) 869 4.2 -28.5°
Enters shadow 19:38:28 74° 217° (SW) 875 4.2 -28.5°
